| time (UTC) | temp C | wind direction | speed KPH | gust KPH | rain 1hr cm | rain 24hr cm | rain mn cm | humidity % | barometer mb |
| 20260506175523 | 1 | 112 | 3.2 | 0.0 | 0.00 | 0.00 | 0.00 | 54 | 1007.3 |
| 20260506174522 | 1 | 135 | 3.2 | 0.0 | 0.00 | 0.00 | 0.00 | 54 | 1007.3 |
| 20260506173520 | 1 | 90 | 6.4 | 0.0 | 0.00 | 0.00 | 0.00 | 53 | 1007.2 |
| 20260506170516 | 2 | 67 | 4.8 | 0.0 | 0.00 | 0.00 | 0.00 | 53 | 1007.1 |
| 20260506165515 | 2 | 135 | 0.0 | 0.0 | 0.00 | 0.00 | 0.00 | 53 | 1007.0 |
| 20260506164514 | 2 | 157 | 6.4 | 0.0 | 0.00 | 0.00 | 0.00 | 53 | 1007.0 |
| 20260506163512 | 2 | 292 | 16.1 | 0.0 | 0.00 | 0.00 | 0.00 | 52 | 1007.1 |
| 20260506162511 | 2 | 180 | 6.4 | 0.0 | 0.00 | 0.00 | 0.00 | 52 | 1007.0 |
| 20260506161509 | 2 | 180 | 0.0 | 0.0 | 0.00 | 0.00 | 0.00 | 52 | 1007.2 |
| 20260506160449 | 3 | 157 | 0.0 | 0.0 | 0.00 | 0.00 | 0.00 | 53 | 1007.3 |
| 20260506155507 | 3 | 135 | 8.0 | 0.0 | 0.00 | 0.00 | 0.00 | 52 | 1007.2 |
| 20260506154505 | 3 | 270 | 4.8 | 0.0 | 0.00 | 0.00 | 0.00 | 52 | 1007.1 |
| 20260506153504 | 3 | 157 | 0.0 | 0.0 | 0.00 | 0.00 | 0.00 | 53 | 1007.3 |
| 20260506152753 | 3 | 247 | 0.0 | 0.0 | 0.00 | 0.00 | 0.00 | 50 | 1007.0 |
| 20260506151501 | 3 | 202 | 6.4 | 0.0 | 0.00 | 0.00 | 0.00 | 50 | 1007.1 |
| 20260506150500 | 3 | 247 | 0.0 | 0.0 | 0.00 | 0.00 | 0.00 | 50 | 1007.0 |
| 20260506145459 | 4 | 247 | 9.7 | 0.0 | 0.00 | 0.00 | 0.00 | 47 | 1007.0 |
| 20260506144457 | 4 | 247 | 8.0 | 0.0 | 0.00 | 0.00 | 0.00 | 47 | 1007.2 |
| 20260506143456 | 5 | 247 | 0.0 | 0.0 | 0.00 | 0.00 | 0.00 | 46 | 1007.2 |
| 20260506142454 | 5 | 270 | 4.8 | 0.0 | 0.00 | 0.00 | 0.00 | 46 | 1007.2 |
| 20260506141453 | 5 | 270 | 6.4 | 0.0 | 0.00 | 0.00 | 0.00 | 45 | 1007.3 |
| 20260506135450 | 5 | 247 | 1.6 | 0.0 | 0.00 | 0.00 | 0.00 | 41 | 1007.1 |
| 20260506134449 | 5 | 292 | 8.0 | 0.0 | 0.00 | 0.00 | 0.00 | 41 | 1007.2 |
| 20260506133447 | 6 | 270 | 0.0 | 0.0 | 0.00 | 0.00 | 0.00 | 41 | 1007.0 |
| 20260506132446 | 7 | 247 | 9.7 | 0.0 | 0.00 | 0.00 | 0.00 | 40 | 1007.2 |
| 20260506131444 | 8 | 157 | 0.0 | 0.0 | 0.00 | 0.00 | 0.00 | 44 | 1007.1 |
| 20260506130443 | 7 | 225 | 4.8 | 0.0 | 0.00 | 0.00 | 0.00 | 45 | 1007.2 |
| 20260506125441 | 6 | 135 | 6.4 | 0.0 | 0.00 | 0.00 | 0.00 | 46 | 1007.1 |
| 20260506123439 | 4 | 292 | 6.4 | 0.0 | 0.00 | 0.00 | 0.00 | 44 | 1007.1 |
| 20260506122438 | 5 | 270 | 8.0 | 0.0 | 0.00 | 0.00 | 0.00 | 42 | 1007.2 |
| 20260506121436 | 7 | 157 | 1.6 | 0.0 | 0.00 | 0.00 | 0.00 | 42 | 1007.2 |
| 20260506120435 | 7 | 180 | 4.8 | 0.0 | 0.00 | 0.00 | 0.00 | 43 | 1007.1 |
| 20260506114432 | 6 | 270 | 0.0 | 0.0 | 0.00 | 0.00 | 0.00 | 44 | 1007.1 |
| 20260506113431 | 6 | 157 | 6.4 | 0.0 | 0.00 | 0.00 | 0.00 | 44 | 1007.1 |
| 20260506112429 | 7 | 292 | 11.3 | 0.0 | 0.00 | 0.00 | 0.00 | 42 | 1007.1 |
| 20260506111428 | 6 | 157 | 9.7 | 0.0 | 0.00 | 0.00 | 0.00 | 45 | 1007.1 |
| 20260506110426 | 6 | 112 | 11.3 | 0.0 | 0.00 | 0.00 | 0.00 | 45 | 1007.2 |
| 20260506105425 | 7 | 157 | 8.0 | 0.0 | 0.00 | 0.00 | 0.00 | 43 | 1007.2 |
| 20260506104424 | 7 | 157 | 1.6 | 0.0 | 0.00 | 0.00 | 0.00 | 45 | 1007.0 |
| 20260506102421 | 7 | 157 | 0.0 | 0.0 | 0.00 | 0.00 | 0.00 | 46 | 1006.9 |
| 20260506101420 | 6 | 157 | 9.7 | 0.0 | 0.00 | 0.00 | 0.00 | 48 | 1007.0 |
| 20260506100418 | 5 | 157 | 8.0 | 0.0 | 0.00 | 0.00 | 0.00 | 49 | 1007.0 |
| 20260506095417 | 4 | 247 | 0.0 | 0.0 | 0.00 | 0.00 | 0.00 | 48 | 1006.8 |
| 20260506094415 | 4 | 157 | 3.2 | 0.0 | 0.00 | 0.00 | 0.00 | 51 | 1007.1 |
| 20260506093414 | 3 | 157 | 1.6 | 0.0 | 0.00 | 0.00 | 0.00 | 54 | 1007.0 |
| 20260506091802 | 0 | 270 | 0.0 | 0.0 | 0.00 | 0.00 | 0.00 | 54 | 1007.0 |
| 20260506091411 | 1 | 180 | 8.0 | 0.0 | 0.00 | 0.00 | 0.00 | 56 | 1006.9 |
| 20260506090410 | 0 | 270 | 0.0 | 0.0 | 0.00 | 0.00 | 0.00 | 54 | 1007.0 |
| 20260506090302 | 1 | 270 | 6.4 | 0.0 | 0.00 | 0.00 | 0.00 | 56 | 1007.0 |
| 20260506084407 | 1 | 292 | 0.0 | 0.0 | 0.00 | 0.00 | 0.00 | 56 | 1007.0 |
| 20260506083405 | 1 | 270 | 6.4 | 0.0 | 0.00 | 0.00 | 0.00 | 56 | 1007.0 |
| 20260506082404 | 1 | 270 | 0.0 | 0.0 | 0.00 | 0.00 | 0.00 | 58 | 1006.9 |
| 20260506080402 | 0 | 270 | 6.4 | 0.0 | 0.00 | 0.00 | 0.00 | 58 | 1006.8 |
| 20260506073357 | 0 | 202 | 3.2 | 0.0 | 0.00 | 0.00 | 0.00 | 62 | 1006.7 |
| 20260506072357 | -1 | 180 | 0.0 | 0.0 | 0.00 | 0.00 | 0.00 | 64 | 1006.7 |
| 20260506070353 | -2 | 247 | 0.0 | 0.0 | 0.00 | 0.00 | 0.00 | 65 | 1006.6 |
| 20260506062347 | -2 | 247 | 4.8 | 0.0 | 0.00 | 0.00 | 0.00 | 67 | 1006.5 |
| 20260506061346 | -2 | 247 | 3.2 | 0.0 | 0.00 | 0.00 | 0.00 | 67 | 1006.6 |
| 20260506060344 | -3 | 315 | 8.0 | 0.0 | 0.00 | 0.00 | 0.00 | 68 | 1006.6 |
| 20260506051339 | -5 | 315 | 3.2 | 0.0 | 0.00 | 0.00 | 0.00 | 72 | 1007.0 |
| 20260506050336 | -6 | 315 | 6.4 | 0.0 | 0.00 | 0.00 | 0.00 | 73 | 1006.8 |
| 20260506041329 | -6 | 315 | 0.0 | 0.0 | 0.00 | 0.00 | 0.00 | 72 | 1007.0 |
| 20260506035326 | -6 | 315 | 3.2 | 0.0 | 0.00 | 0.00 | 0.00 | 72 | 1006.8 |
| 20260506033324 | -6 | 315 | 3.2 | 0.0 | 0.00 | 0.00 | 0.00 | 72 | 1006.8 |
| 20260506032323 | -6 | 225 | 0.0 | 0.0 | 0.00 | 0.00 | 0.00 | 73 | 1006.6 |
| 20260506030320 | -6 | 225 | 0.0 | 0.0 | 0.00 | 0.00 | 0.00 | 72 | 1006.5 |
| 20260506024317 | -6 | 225 | 0.0 | 0.0 | 0.00 | 0.00 | 0.00 | 73 | 1006.7 |
| 20260506023316 | -6 | 225 | 0.0 | 0.0 | 0.00 | 0.00 | 0.00 | 73 | 1006.7 |
| 20260506022314 | -6 | 225 | 0.0 | 0.0 | 0.00 | 0.00 | 0.00 | 73 | 1006.8 |
| 20260506021314 | -6 | 225 | 0.0 | 0.0 | 0.00 | 0.00 | 0.00 | 72 | 1006.7 |
| 20260506012308 | -5 | 225 | 0.0 | 0.0 | 0.00 | 0.00 | 0.00 | 72 | 1006.5 |
| 20260506011305 | -5 | 225 | 0.0 | 0.0 | 0.00 | 0.00 | 0.00 | 71 | 1006.3 |
| 20260506010303 | -5 | 225 | 0.0 | 0.0 | 0.00 | 0.00 | 0.00 | 71 | 1006.4 |
| 20260506003300 | -5 | 225 | 0.0 | 0.0 | 0.00 | 0.00 | 0.00 | 71 | 1006.0 |
| 20260506000255 | -5 | 225 | 0.0 | 0.0 | 0.00 | 0.00 | 0.00 | 70 | 1006.0 |
| 20260505235410 | -5 | 225 | 0.0 | 0.0 | 0.00 | 0.00 | 0.00 | 69 | 1006.1 |
| 20260505235253 | -5 | 225 | 0.0 | 0.0 | 0.00 | 0.00 | 0.00 | 70 | 1006.2 |
| 20260505234252 | -5 | 225 | 0.0 | 0.0 | 0.00 | 0.00 | 0.00 | 69 | 1006.1 |
| 20260505232250 | -4 | 225 | 0.0 | 0.0 | 0.00 | 0.00 | 0.00 | 70 | 1006.0 |
| 20260505231248 | -4 | 225 | 0.0 | 0.0 | 0.00 | 0.00 | 0.00 | 70 | 1006.0 |
| 20260505222241 | -3 | 225 | 0.0 | 0.0 | 0.00 | 0.00 | 0.00 | 70 | 1006.0 |
| 20260505215237 | -3 | 225 | 0.0 | 0.0 | 0.00 | 0.00 | 0.00 | 71 | 1006.1 |
| 20260505214235 | -3 | 225 | 0.0 | 0.0 | 0.00 | 0.00 | 0.00 | 71 | 1006.1 |
| 20260505212233 | -3 | 225 | 0.0 | 0.0 | 0.00 | 0.00 | 0.00 | 70 | 1006.1 |
| 20260505211232 | -3 | 225 | 0.0 | 0.0 | 0.00 | 0.00 | 0.00 | 70 | 1006.1 |
| 20260505210230 | -4 | 225 | 0.0 | 0.0 | 0.00 | 0.00 | 0.00 | 70 | 1006.0 |
| 20260505205229 | -3 | 225 | 0.0 | 0.0 | 0.00 | 0.00 | 0.00 | 69 | 1006.2 |
| 20260505204227 | -3 | 225 | 0.0 | 0.0 | 0.00 | 0.00 | 0.00 | 68 | 1006.1 |
| 20260505203226 | -3 | 225 | 0.0 | 0.0 | 0.00 | 0.00 | 0.00 | 67 | 1005.9 |
| 20260505201223 | -3 | 225 | 1.6 | 0.0 | 0.00 | 0.00 | 0.00 | 66 | 1005.9 |
| 20260505200222 | -3 | 225 | 0.0 | 0.0 | 0.00 | 0.00 | 0.00 | 65 | 1005.9 |
| 20260505195220 | -2 | 225 | 0.0 | 0.0 | 0.00 | 0.00 | 0.00 | 64 | 1005.9 |
| 20260505194219 | -2 | 225 | 0.0 | 0.0 | 0.00 | 0.00 | 0.00 | 63 | 1005.7 |
| 20260505193217 | -2 | 225 | 0.0 | 0.0 | 0.00 | 0.00 | 0.00 | 63 | 1005.6 |
| 20260505190214 | -2 | 225 | 4.8 | 0.0 | 0.00 | 0.00 | 0.00 | 61 | 1005.6 |
| 20260505185212 | -2 | 225 | 1.6 | 0.0 | 0.00 | 0.00 | 0.00 | 61 | 1005.5 |
| 20260505184211 | -2 | 157 | 4.8 | 0.0 | 0.00 | 0.00 | 0.00 | 60 | 1005.6 |
| 20260505183209 | -2 | 157 | 4.8 | 0.0 | 0.00 | 0.00 | 0.00 | 60 | 1005.4 |
| 20260505182208 | -1 | 292 | 1.6 | 0.0 | 0.00 | 0.00 | 0.00 | 59 | 1005.3 |